| time (UTC) | temp C | wind direction | speed KPH | gust KPH | rain 1hr cm | rain 24hr cm | rain mn cm | humidity % | barometer mb |
| 20260503224537 | 20 | 206 | 9.7 | 20.9 | 0.00 | 0.00 | 0.00 | 28 | 1003.7 |
| 20260503223035 | 21 | 242 | 8.0 | 19.3 | 0.00 | 0.00 | 0.00 | 29 | 1003.6 |
| 20260503221538 | 20 | 283 | 9.7 | 29.0 | 0.00 | 0.00 | 0.00 | 28 | 1003.3 |
| 20260503220031 | 20 | 266 | 6.4 | 19.3 | 0.00 | 0.00 | 0.00 | 28 | 1003.6 |
| 20260503214530 | 20 | 268 | 3.2 | 16.1 | 0.00 | 0.00 | 0.00 | 29 | 1003.7 |
| 20260503213032 | 20 | 200 | 4.8 | 22.5 | 0.00 | 0.00 | 0.00 | 29 | 1003.7 |
| 20260503211528 | 20 | 248 | 11.3 | 20.9 | 0.00 | 0.00 | 0.00 | 28 | 1003.9 |
| 20260503210023 | 20 | 240 | 12.9 | 27.4 | 0.00 | 0.00 | 0.00 | 30 | 1004.1 |
| 20260503204525 | 20 | 281 | 12.9 | 25.7 | 0.00 | 0.00 | 0.00 | 29 | 1004.4 |
| 20260503203019 | 20 | 316 | 6.4 | 19.3 | 0.00 | 0.00 | 0.00 | 30 | 1004.4 |
| 20260503201527 | 20 | 274 | 8.0 | 17.7 | 0.00 | 0.00 | 0.00 | 28 | 1004.8 |
| 20260503200013 | 19 | 295 | 6.4 | 19.3 | 0.00 | 0.00 | 0.00 | 29 | 1004.8 |
| 20260503194512 | 20 | 266 | 6.4 | 24.1 | 0.00 | 0.00 | 0.00 | 28 | 1005.0 |
| 20260503193009 | 18 | 302 | 8.0 | 27.4 | 0.00 | 0.00 | 0.00 | 27 | 1005.2 |
| 20260503191508 | 18 | 257 | 9.7 | 24.1 | 0.00 | 0.00 | 0.00 | 25 | 1005.2 |
| 20260503190011 | 18 | 352 | 9.7 | 24.1 | 0.00 | 0.00 | 0.00 | 22 | 1005.4 |
| 20260503184503 | 19 | 248 | 4.8 | 24.1 | 0.00 | 0.00 | 0.00 | 24 | 1005.5 |
| 20260503183004 | 18 | 243 | 4.8 | 17.7 | 0.00 | 0.00 | 0.00 | 24 | 1005.6 |
| 20260503181623 | 18 | 273 | 4.8 | 20.9 | 0.00 | 0.00 | 0.00 | 25 | 1005.8 |
| 20260503180029 | 17 | 304 | 11.3 | 30.6 | 0.00 | 0.00 | 0.00 | 24 | 1006.0 |
| 20260503174527 | 17 | 265 | 14.5 | 25.7 | 0.00 | 0.00 | 0.00 | 24 | 1006.1 |
| 20260503173041 | 17 | 330 | 11.3 | 29.0 | 0.00 | 0.00 | 0.00 | 25 | 1006.0 |
| 20260503171522 | 17 | 285 | 6.4 | 29.0 | 0.00 | 0.00 | 0.00 | 26 | 1006.1 |
| 20260503100120 | 4 | 170 | 0.0 | 0.0 | 0.00 | 0.00 | 0.00 | 85 | 1006.4 |
| 20260503081516 | 6 | 105 | 0.0 | 4.8 | 0.00 | 0.00 | 0.00 | 76 | 1006.9 |
| 20260503071615 | 7 | 103 | 0.0 | 0.0 | 0.00 | 0.00 | 0.00 | 70 | 1007.6 |
| 20260503070104 | 7 | 103 | 0.0 | 0.0 | 0.00 | 0.00 | 0.00 | 71 | 1007.8 |
| 20260503060104 | 6 | 103 | 0.0 | 1.6 | 0.00 | 0.00 | 0.00 | 74 | 1008.7 |
| 20260503054544 | 6 | 103 | 0.0 | 3.2 | 0.00 | 0.00 | 0.00 | 75 | 1008.8 |
| 20260503053042 | 5 | 329 | 0.0 | 0.0 | 0.00 | 0.00 | 0.00 | 76 | 1009.0 |
| 20260503051532 | 5 | 337 | 0.0 | 3.2 | 0.00 | 0.00 | 0.00 | 76 | 1009.2 |
| 20260503050032 | 5 | 63 | 0.0 | 6.4 | 0.00 | 0.00 | 0.00 | 76 | 1009.4 |
| 20260503044600 | 6 | 71 | 0.0 | 3.2 | 0.00 | 0.00 | 0.00 | 78 | 1009.4 |
| 20260503043027 | 5 | 175 | 1.6 | 6.4 | 0.00 | 0.00 | 0.00 | 80 | 1009.4 |
| 20260503041525 | 5 | 67 | 0.0 | 3.2 | 0.00 | 0.00 | 0.00 | 80 | 1009.6 |
| 20260503040025 | 5 | 130 | 1.6 | 3.2 | 0.00 | 0.00 | 0.00 | 79 | 1009.9 |
| 20260503034524 | 5 | 158 | 0.0 | 4.8 | 0.00 | 0.00 | 0.00 | 79 | 1009.9 |
| 20260503033025 | 5 | 175 | 3.2 | 4.8 | 0.00 | 0.00 | 0.00 | 78 | 1010.1 |
| 20260503031553 | 5 | 139 | 1.6 | 4.8 | 0.00 | 0.00 | 0.00 | 78 | 1010.2 |
| 20260503030104 | 5 | 169 | 3.2 | 4.8 | 0.00 | 0.00 | 0.00 | 77 | 1010.2 |
| 20260503024556 | 5 | 139 | 1.6 | 9.7 | 0.00 | 0.00 | 0.00 | 74 | 1010.2 |
| 20260503023054 | 8 | 98 | 0.0 | 4.8 | 0.00 | 0.00 | 0.00 | 67 | 1010.0 |
| 20260503021548 | 8 | 79 | 1.6 | 6.4 | 0.00 | 0.00 | 0.00 | 65 | 1010.0 |
| 20260503020048 | 8 | 42 | 1.6 | 8.0 | 0.00 | 0.00 | 0.00 | 64 | 1009.8 |
| 20260503014553 | 9 | 301 | 1.6 | 4.8 | 0.00 | 0.00 | 0.00 | 60 | 1009.9 |
| 20260503013045 | 9 | 64 | 3.2 | 6.4 | 0.00 | 0.00 | 0.00 | 58 | 1009.8 |
| 20260503011548 | 8 | 328 | 0.0 | 4.8 | 0.00 | 0.00 | 0.00 | 62 | 1009.7 |
| 20260503010044 | 8 | 11 | 1.6 | 6.4 | 0.00 | 0.00 | 0.00 | 62 | 1009.6 |
| 20260503004543 | 10 | 60 | 4.8 | 9.7 | 0.00 | 0.00 | 0.00 | 59 | 1009.4 |
| 20260503003046 | 10 | 320 | 0.0 | 4.8 | 0.00 | 0.00 | 0.00 | 57 | 1009.6 |
| 20260503001542 | 11 | 44 | 0.0 | 6.4 | 0.00 | 0.00 | 0.00 | 54 | 1009.7 |
| 20260503000046 | 12 | 19 | 1.6 | 9.7 | 0.00 | 0.00 | 0.00 | 49 | 1009.7 |
| 20260502234549 | 17 | 203 | 3.2 | 9.7 | 0.00 | 0.00 | 0.00 | 42 | 1009.8 |
| 20260502233033 | 17 | 167 | 8.0 | 9.7 | 0.00 | 0.00 | 0.00 | 41 | 1009.8 |
| 20260502231533 | 16 | 224 | 11.3 | 17.7 | 0.00 | 0.00 | 0.00 | 42 | 1010.1 |
| 20260502230030 | 17 | 200 | 11.3 | 22.5 | 0.00 | 0.00 | 0.00 | 42 | 1010.1 |